Orbital Elements at Epoch 2459000.5 (2020-May-31.0) TDB
Reference: JPL 18 (heliocentric ecliptic J2000)
Element | Value | Uncertainty (1-sigma) | Units |
e | .05346500637828255 | 6.5108e-08 | |
a | 3.174823526578191 | 4.3662e-08 | au |
q | 3.005081566479766 | 2.1549e-07 | au |
i | 9.82151999321221 | 6.7919e-06 | deg |
node | 134.7272583629413 | 3.7544e-05 | deg |
peri | 61.03889891757847 | 6.7722e-05 | deg |
M | 203.0354679471767 | 5.9654e-05 | deg |
tp | 2459901.400526304052 (2022-Nov-17.90052630) | 0.00034999 | TDB |
period | 2066.225950715502 5.66 | 4.2624e-05 1.167e-07 | d yr |
n | .1742307030241962 | 3.5942e-09 | deg/d |
Q | 3.344565486676615 | 4.5997e-08 | au |
|
| | Orbit Determination Parameters
Additional Information
|